This is the latest recevied weather packets stored in our database for station/object KD8TSA. If no packets are shown the sender has not sent any weather packets the latest 1 day(s).
| Time | Temp. | Humidity | Pressure | Rain* | Wind** | Luminosity | Snow |
|---|---|---|---|---|---|---|---|
| 1778038058 | 14.44° C | 97% | 1006.4 hPa | 0 mm | - | 0 W/m² | - |
| 1778037452 | 14.44° C | 97% | 1006.9 hPa | 0 mm | - | 0 W/m² | - |
| 1778037149 | 14.44° C | 97% | 1006.9 hPa | 1.27 mm | - | 0 W/m² | - |
| 1778036848 | 14.44° C | 97% | 1006.7 hPa | 1.27 mm | - | 0 W/m² | - |
| 1778036545 | 14.44° C | 97% | 1006.9 hPa | 1.27 mm | - | 0 W/m² | - |
| 1778036242 | 14.44° C | 96% | 1006.9 hPa | 0 mm | - | 0 W/m² | - |
| 1778035938 | 14.44° C | 96% | 1007 hPa | 0 mm | - | 0 W/m² | - |
| 1778035635 | 14.44° C | 96% | 1007.1 hPa | 0 mm | - | 0 W/m² | - |
| 1778035331 | 14.44° C | 96% | 1007.3 hPa | 0 mm | - | 0 W/m² | - |
| 1778035027 | 14.44° C | 96% | 1007.2 hPa | 0 mm | - | 0 W/m² | - |
| 1778034725 | 14.44° C | 96% | 1007.4 hPa | 1.78 mm | - | 0 W/m² | - |
| 1778034114 | 14.44° C | 95% | 1007.2 hPa | 6.1 mm | - | 0 W/m² | - |
| 1778033812 | 14.44° C | 95% | 1007.2 hPa | 7.87 mm | - | 0 W/m² | - |
| 1778033509 | 14.44° C | 95% | 1007.3 hPa | 4.83 mm | - | 0 W/m² | - |
| 1778033205 | 14.44° C | 95% | 1007.3 hPa | 6.1 mm | - | 0 W/m² | - |
| 1778032601 | 15° C | 94% | 1007.3 hPa | 6.1 mm | - | 0 W/m² | - |
| 1778032297 | 15° C | 94% | 1006.9 hPa | 4.83 mm | - | 0 W/m² | - |
| 1778031995 | 15° C | 94% | 1007.2 hPa | 6.1 mm | - | 0 W/m² | - |
| 1778031690 | 15° C | 94% | 1007.1 hPa | 3.05 mm | - | 0 W/m² | - |
| 1778031085 | 15° C | 93% | 1006.6 hPa | 1.27 mm | - | 0 W/m² | - |
| 1778030781 | 15° C | 93% | 1006.4 hPa | 1.27 mm | - | 0 W/m² | - |
| 1778030472 | 15° C | 93% | 1006.5 hPa | 1.78 mm | - | 0 W/m² | - |
* Rain latest hour (hover to see other rain measurements)
** Current wind speed in m/s (hover to see current wind gust speed)